User: anonymous   Login
Location: Unspecified
(0.0000°N, 0.0000°E)
Time: 11:13:06
(UTC+00:00)
Language:

Hubble Space Telescope - Orbit

View from above orbital plane
View from above orbital plane
View from above satellite
View from above satellite

Ground track
Ground track

The orbit data is extracted from the following two-line orbital elements,

1 20580U 90037B   18174.92952378 +.00000481 +00000-0 +18493-4 0  9992
2 20580 028.4702 070.5345 0002655 209.1044 242.9670 15.09055631346404
Epoch (UTC): 23 June 2018 22:18:30
Eccentricity: 0.0002655
inclination: 28.4702°
perigee height: 537 km
apogee height: 541 km
right ascension of ascending node: 70.5345°
argument of perigee: 209.1044°
revolutions per day: 15.09055631
mean anomaly at epoch: 242.9670°
orbit number at epoch: 34640

The dashed part of the orbit path shows where the satellite is in the earth's shadow,  

DLR